Retour au catalogue

OPS 9342

IDSCS 20

ActifMilitaireMEO
NORAD 3285·PAYLOAD·🇺🇸 United States

Lancé Jun 13, 1968 depuis Cape Canaveral Space Force Station

Loading…

Prochains Passages (prochaines 24 heures)

TLE

FraisSource: Space-Track

Époque: Sep 14, 2026, 13:23 UTC

1 03285U 68050B   26257.55777417 -.00000103  00000-0  00000-0 0  9997
2 03285   7.4157  50.8363 0016765 156.8947 204.9282  1.07819295229130

Suivez OPS 9342 en temps réel avec AllMySat

Download on the App Store